Terug naar catalogus

COSMOS 1263

ActiefNavigatiePO
NORAD 12388·PAYLOAD·🇷🇺 Russia

Gelanceerd Apr 9, 1981 vanaf Plesetsk Cosmodrome

Loading…

Volgende Passages (komende 24 uur)

TLE

VersSource: Space-Track

Epoch: Sep 14, 2026, 15:18 UTC

1 12388U 81033A   26257.63803977  .00002926  00000-0  16257-3 0  9995
2 12388  82.8579 140.4078 0573467 175.4490 185.2256 14.30747535284214

Volg COSMOS 1263 in realtime met AllMySat

Download on the App Store